Location: Dammartin
(48.9032°N, 1.6195°E)
Time: 13:40:41
(UTC+00:00)

In-Cosmos 22 Rocket - Pass Details

Date: 03 February 2023
Orbit: 789 x 888 km, 81.2° (Epoch: 29 March)

Event Time Altitude Azimuth Distance (km) Brightness Sun altitude
Rises 18:29:47 0° 188° (S) 3,466 7.6 -16.0°
Reaches altitude 10° 18:32:12 10° 188° (S) 2,539 6.9 -16.3°
Maximum altitude 18:38:01 87° 100° (E) 897 4.2 -17.3°
Drops below altitude 10° 18:43:54 10° 13° (NNE) 2,562 6.5 -18.3°
Sets 18:46:21 0° 13° (NNE) 3,500 7.2 -18.7°
